Japanese version Home page |
Updated on May 25, 2014 |
Profile
|
Orbital ElementsEpoch 2007 June 29.0 TT = JDT 2454280.5 T 2007 July 4.62049 TT MPC q 3.2776578 (2000.0) P Q n 0.11212882 Peri. 208.20226 +0.86407108 +0.49537291 a 4.2591659 Node 121.82905 -0.43980194 +0.82932141 e 0.2304461 Incl. 6.03791 -0.24485796 +0.25851823 P 8.79 From 28 observations 2007 Aug. 16-2014 May 22, mean residual 0".4.
|
Magnitudes Graphm1 = 12.0 + 5 log d + 10.0 log r
|
The orbital elements are published on M.P.E.C. 2014-K28.
|